{"data":{"norad_id":48644,"epoch":"2026-09-19T16:36:45.194400Z","epoch_age_seconds":106988,"freshness":"FRESH","line1":"1 48644U 21044G   26262.69218975 -.00000212  00000+0  49472-5 0  9998","line2":"2 48644  53.1598 291.1986 0001356  54.7019 305.4109 15.31706570293557","mean_motion":15.3170657,"eccentricity":0.0001356,"inclination_deg":53.1598,"raan_deg":291.1986,"arg_perigee_deg":54.7019,"mean_anomaly_deg":305.4109,"bstar":4.9472e-6,"rev_number":29355,"period_min":94.012784707191,"perigee_km":469.79170540267,"apogee_km":471.64911553239,"semimajor_km":6848.8574104675,"source":"CELESTRAK","updated_at":"2026-09-20T09:00:39.140765Z"}}